Monticello, AR

8:44 PM CDT on April 25, 2017 (GMT -0500)
Monticello Municipal-Ellis

Weather History for KLLQ - February, 2014

Change the Weather History Date:

Saturday, February 8, 2014

  Actual Average Record
Temperature  
Mean Temperature 32 °F -  
Max Temperature 36 °F 51 °F 79 °F (1957)
Min Temperature 28 °F 29 °F 15 °F (1985)
Degree Days  
Heating Degree Days 33    
Moisture  
Dew Point 29 °F    
Average Humidity 91    
Maximum Humidity 100    
Minimum Humidity 85    
Precipitation  
Precipitation 0.00 in - - ()
Sea Level Pressure  
Sea Level Pressure 30.22 in    
Wind  
Wind Speed 1 mph (NE)    
Max Wind Speed 5 mph    
Max Gust Speed -    
Visibility 6 miles    
Events Rain    
Averages and records for this station are not official NWS values.
T = Trace of Precipitation, MM = Missing Value Source: NWS Daily Summary

Daily Weather History Graph

Daily Weather History Graph

Search for Another Location

Airport or City:

Trip Planner

Search our weather history database for the weather conditions in past years. The results will help you decide how hot, cold, wet, or windy it might be!

Date:

Astronomy

Feb. 08, 2014 Rise Set
Actual Time 6:57 AM CST 5:44 PM CST
Civil Twilight 6:32 AM CST 6:10 PM CST
Nautical Twilight 6:02 AM CST 6:40 PM CST
Astronomical Twilight 5:33 AM CST 7:09 PM CST
Moon 12:43 PM CST (2/8) 2:06 AM CST (2/8)
Length of Visible Light 11h 38m
Length of Day
10h 47m
Waxing Gibbous, 69% of the Moon is Illuminated
Feb 8
Waxing Gibbous
Feb 14
Full
Feb 22
Last Quarter
Mar 1
New
Mar 8
First Quarter

Hourly Weather History & Observations

Time (CST) Temp. Windchill Dew Point Humidity Pressure Visibility Wind Dir Wind Speed Gust Speed Precip Events Conditions
12:46 AM 28.4 °F - 26.6 °F 93% 30.27 in 5.0 mi Calm Calm - 0.00 in   Overcast
12:53 AM 28.0 °F - 26.1 °F 92% 30.28 in 5.0 mi Calm Calm - 0.00 in   Overcast
1:03 AM 28.4 °F 24.6 °F 26.6 °F 93% 30.27 in 6.0 mi East 3.5 mph - 0.00 in Rain Light Freezing Rain
1:22 AM 28.4 °F - 26.6 °F 93% 30.26 in 5.0 mi Calm Calm - 0.00 in   Overcast
1:53 AM 28.0 °F - 26.1 °F 92% 30.26 in 5.0 mi Calm Calm - 0.00 in   Overcast
2:53 AM 28.0 °F - 26.1 °F 92% 30.25 in 3.0 mi Calm Calm - 0.00 in   Overcast
3:02 AM 28.4 °F - 26.6 °F 93% 30.24 in 2.5 mi Calm Calm - 0.00 in   Overcast
3:09 AM 28.4 °F - 26.6 °F 93% 30.24 in 2.5 mi Calm Calm - 0.00 in Rain Light Freezing Rain
3:28 AM 28.4 °F - 26.6 °F 93% 30.24 in 3.0 mi Calm Calm - 0.00 in Rain Light Freezing Rain
3:53 AM 28.9 °F - 26.1 °F 89% 30.24 in 2.5 mi Calm Calm - 0.00 in Rain Light Freezing Rain
4:16 AM 28.4 °F - 26.6 °F 93% 30.24 in 3.0 mi Calm Calm - 0.00 in Rain Light Freezing Rain
4:27 AM 28.4 °F - 26.6 °F 93% 30.23 in 3.0 mi Calm Calm - 0.00 in   Overcast
4:53 AM 28.9 °F - 27.0 °F 92% 30.25 in 3.0 mi Calm Calm - 0.00 in   Overcast
5:53 AM 28.9 °F - 27.0 °F 92% 30.26 in 3.0 mi Calm Calm - N/A   Overcast
6:53 AM 28.9 °F - 27.0 °F 92% 30.27 in 4.0 mi Calm Calm - N/A   Overcast
7:38 AM 28.4 °F - 26.6 °F 93% 30.27 in 2.5 mi Calm Calm - N/A   Overcast
7:53 AM 28.9 °F 25.2 °F 27.0 °F 92% 30.29 in 2.0 mi NE 3.5 mph - N/A   Overcast
8:12 AM 28.4 °F 23.3 °F 26.6 °F 93% 30.28 in 3.0 mi NE 4.6 mph - N/A   Overcast
8:53 AM 28.9 °F 23.9 °F 27.0 °F 92% 30.30 in 6.0 mi NE 4.6 mph - N/A   Overcast
9:53 AM 30.0 °F 25.2 °F 27.0 °F 88% 30.30 in 5.0 mi NE 4.6 mph - N/A   Overcast
10:53 AM 30.9 °F 26.2 °F 28.0 °F 89% 30.28 in 7.0 mi NE 4.6 mph - N/A   Overcast
11:53 AM 32.0 °F 28.7 °F 28.0 °F 85% 30.25 in 8.0 mi NE 3.5 mph - N/A   Overcast
12:07 PM 32.0 °F - 28.4 °F 87% 30.24 in 9.0 mi Calm Calm - N/A   Overcast
12:53 PM 33.1 °F - 30.0 °F 89% 30.21 in 10.0 mi Calm Calm - N/A   Overcast
1:53 PM 35.1 °F 32.2 °F 30.9 °F 85% 30.19 in 10.0 mi Variable 3.5 mph - N/A   Overcast
2:53 PM 35.1 °F - 32.0 °F 89% 30.19 in 10.0 mi Calm Calm - N/A   Overcast
3:53 PM 36.0 °F - 33.1 °F 89% 30.19 in 10.0 mi Calm Calm - N/A   Overcast
4:53 PM 36.0 °F 33.3 °F 33.1 °F 89% 30.17 in 10.0 mi East 3.5 mph - N/A   Overcast
5:53 PM 36.0 °F 33.3 °F 33.1 °F 89% 30.17 in 10.0 mi ENE 3.5 mph - N/A   Overcast
6:17 PM 35.6 °F - 33.8 °F 93% 30.16 in 10.0 mi Calm Calm - N/A   Overcast
6:53 PM 35.1 °F 31.0 °F 32.0 °F 89% 30.17 in 9.0 mi East 4.6 mph - N/A   Overcast
7:19 PM 33.8 °F 29.6 °F 30.2 °F 87% 30.16 in 8.0 mi East 4.6 mph - N/A   Scattered Clouds
7:53 PM 34.0 °F 29.8 °F 32.0 °F 92% 30.14 in 9.0 mi East 4.6 mph - N/A   Clear
8:53 PM 33.1 °F - 30.9 °F 92% 30.13 in 6.0 mi Calm Calm - N/A   Clear
9:53 PM 33.1 °F - 30.9 °F 92% 30.12 in 5.0 mi Calm Calm - N/A   Clear
10:53 PM 32.0 °F 27.5 °F 30.0 °F 92% 30.16 in 4.0 mi NW 4.6 mph - N/A   Clear
11:49 PM 33.8 °F 30.8 °F 33.8 °F 100% 30.16 in 4.0 mi NW 3.5 mph - N/A   Mostly Cloudy
11:53 PM 34.0 °F 31.0 °F 33.1 °F 96% 30.17 in 5.0 mi NNW 3.5 mph - N/A   Mostly Cloudy